Regional Weather Roundup
Issued by NWS

Home | Current Version | Previous Version | Graphics & Text | Print | Product List | Glossary On
Versions: 1 2 3 4 5 6 7 8 9 10 11 12 13 14 15 16 17 18 19 20 21 22 23 24 25 26 27 28 29 30 31 32 33 34 35 36 37 38 39 40 41 42 43 44 45 46 47 48 49 50
000
ASUS43 KFSD 190810
RWRSD

WEATHER ROUNDUP FOR SOUTH DAKOTA
NATIONAL WEATHER SERVICE SIOUX FALLS SD
200 AM CST SUN FEB 19 2017

NOTE: "FAIR" INDICATES FEW OR NO CLOUDS BELOW 12,000 FEET WITH NO
SIGNIFICANT WEATHER AND/OR OBSTRUCTIONS TO VISIBILITY.


SDZ001>005-009-010-012>017-190900-
NORTHWEST AND NORTH CENTRAL SOUTH DAKOTA

CITY           SKY/WX    TMP DP  RH WIND       PRES   REMARKS
BUFFALO          N/A     41  33  73 CALM      29.49F
FAITH            N/A     40  33  76 S15       29.59F
MOBRIDGE       CLOUDY    40  31  70 SE13      29.62F
$$

SDZ012>016-024>037-041>051-057-063-072>074-190900-
SOUTHWEST AND SOUTH CENTRAL SOUTH DAKOTA

CITY           SKY/WX    TMP DP  RH WIND       PRES   REMARKS
RAPID CTY ARPT PTCLDY    42  30  62 CALM      29.60F
PIERRE         PTCLDY    41  31  67 E8        29.66F
CUSTER         CLOUDY    40  25  55 SW3       29.65F
ELLSWORTH AFB  PTCLDY    46  30  54 CALM      29.59F
PHILIP         CLOUDY    48  33  56 SW3       29.62F
PINE RIDGE     CLOUDY    47  33  58 S20       29.63S
SPEARFISH      MOCLDY    45  32  61 SE8       29.60F
WINNER         FAIR      52  33  48 S16       29.68F
$$

SDZ004>011-016>023-039-040-190900-
NORTHEAST SOUTH DAKOTA

CITY           SKY/WX    TMP DP  RH WIND       PRES   REMARKS
ABERDEEN       PTCLDY    39  32  76 S14       29.73S
WATERTOWN      PTCLDY    37  35  92 S8        29.78S
BROOKINGS      PTCLDY    41  37  86 S15       29.80
SISSETON         N/A     35  35 100 SE8       29.78F WCI  29
$$

SDZ017-020-022-023-036>040-048>070-190900-
SOUTHEAST SOUTH DAKOTA

CITY           SKY/WX    TMP DP  RH WIND       PRES   REMARKS
SIOUX FALLS    PTCLDY    37  35  92 E3        29.81S
HURON          CLOUDY    37  34  89 SE8       29.75S
CHAMBERLAIN    PTCLDY    40  36  83 SE8       29.70F
MITCHELL       MOCLDY    39  35  86 SE8       29.77S
YANKTON        PTCLDY    39  32  75 E3        29.78F
$$

ABBREVIATIONS USED IN REMARKS
   TC - TEMPERATURE IN CELSIUS
  WCI - WIND CHILL INDEX
   HX - HEAT INDEX
  VSB - VISIBILITY





USA.gov is the U.S. government's official web portal to all federal, state and local government web resources and services.